Saint Martin Island, Sint Maarten

12:08 PM AST on February 27, 2017 (GMT -0400)
Princess Juliana International

Weather History for TNCM - November, 2014

Change the Weather History Date:

Thursday, November 13, 2014

  Actual Average Record
Temperature  
Mean Temperature 82 °F -  
Max Temperature 86 °F 83 °F 89 °F (2001)
Min Temperature 77 °F 74 °F 71 °F (2003)
Cooling Degree Days 16    
Growing Degree Days 32 (Base 50)    
Moisture  
Dew Point 74 °F    
Average Humidity 74    
Maximum Humidity 83    
Minimum Humidity 61    
Precipitation  
Precipitation 0.00 in 0.15 in - ()
Sea Level Pressure  
Sea Level Pressure 29.91 in    
Wind  
Wind Speed 6 mph ()    
Max Wind Speed 16 mph    
Max Gust Speed -    
Visibility 7.6 miles    
Events      
Averages and records for this station are not official NWS values.
T = Trace of Precipitation, MM = Missing Value Source: Averaged Metar Reports

Daily Weather History Graph

Daily Weather History Graph

Search for Another Location

Airport or City:

Trip Planner

Search our weather history database for the weather conditions in past years. The results will help you decide how hot, cold, wet, or windy it might be!

Date:

Astronomy

Nov. 13, 2014 Rise Set
Actual Time 6:17 AM AST 5:36 PM AST
Civil Twilight 5:54 AM AST 5:58 PM AST
Nautical Twilight 5:28 AM AST 6:25 PM AST
Astronomical Twilight 5:02 AM AST 6:51 PM AST
Moon 11:35 PM AST (11/13) 11:45 AM AST (11/13)
Length of Visible Light 12h 04m
Length of Day
11h 18m
Waning Gibbous, 59% of the Moon is Illuminated
Nov 13
Waning Gibbous
Nov 14
Last Quarter
Nov 22
New
Nov 29
First Quarter
Dec 6
Full

Hourly Weather History & Observations

Time (AST) Temp. Heat Index Dew Point Humidity Pressure Visibility Wind Dir Wind Speed Gust Speed Precip Events Conditions
12:00 AM 80.6 °F 85.4 °F 73.4 °F 79% 29.89 in 6.2 mi ESE 16.1 mph - N/A   Scattered Clouds
1:00 AM 80.6 °F 85.4 °F 73.4 °F 79% 29.89 in 6.2 mi East 4.6 mph - N/A   Partly Cloudy
2:00 AM 81 °F - 72 °F 69% 29.89 in 19 mi ESE 5.8 mph - -   Scattered Clouds
2:00 AM 80.6 °F 85.4 °F 73.4 °F 79% 29.89 in 6.2 mi ESE 5.8 mph - N/A   Partly Cloudy
3:00 AM 78.8 °F - 73.4 °F 83% 29.86 in 6.2 mi Variable 2.3 mph - N/A   Partly Cloudy
4:00 AM 78.8 °F - 73.4 °F 83% 29.86 in 6.2 mi NE 3.5 mph - N/A   Partly Cloudy
5:00 AM 78 °F - 73 °F 79% 29.88 in 19 mi NE 3.5 mph - -   Partly Cloudy
5:00 AM 78.8 °F - 73.4 °F 83% 29.86 in 6.2 mi ENE 5.8 mph - N/A   Scattered Clouds
6:00 AM 78.8 °F - 73.4 °F 83% 29.89 in 6.2 mi East 3.5 mph - N/A   Partly Cloudy
7:00 AM 78.8 °F - 73.4 °F 83% - 6.2 mi ENE 3.5 mph - N/A   Partly Cloudy
8:00 AM 83 °F - 73 °F 65% 29.94 in 40 mi 3.5 mph - -   Scattered Clouds
8:00 AM 84.2 °F 90.9 °F 73.4 °F 70% 29.92 in 6.2 mi Variable 3.5 mph - N/A   Partly Cloudy
9:00 AM 84.2 °F 90.9 °F 73.4 °F 70% 29.95 in 6.2 mi ESE 6.9 mph - N/A   Partly Cloudy
10:00 AM 84.2 °F 90.9 °F 73.4 °F 70% 29.95 in 6.2 mi ESE 6.9 mph - N/A   Scattered Clouds
11:00 AM 85 °F - 74 °F 63% 29.95 in 28 mi SE 6.9 mph - -   Partly Cloudy
11:00 AM 86.0 °F 95.1 °F 75.2 °F 70% 29.95 in 6.2 mi SE 6.9 mph - N/A   Scattered Clouds
12:00 PM 86.0 °F 95.1 °F 75.2 °F 70% 29.92 in 6.2 mi SE 8.1 mph - N/A   Scattered Clouds
1:00 PM 86.0 °F 95.1 °F 75.2 °F 70% 29.89 in 6.2 mi SE 9.2 mph - N/A   Scattered Clouds
2:00 PM 85 °F - 73 °F 61% 29.89 in 28 mi SE 8.1 mph - -   Partly Cloudy
2:00 PM 86.0 °F 93.4 °F 73.4 °F 66% 29.89 in 6.2 mi SE 8.1 mph - N/A   Scattered Clouds
3:00 PM 84.2 °F 92.3 °F 75.2 °F 74% 29.86 in 6.2 mi SE 6.9 mph - N/A   Scattered Clouds
4:00 PM 86.0 °F 93.4 °F 73.4 °F 66% 29.86 in 6.2 mi ESE 6.9 mph - N/A   Partly Cloudy
5:00 PM 84 °F - 73 °F 63% 29.89 in 37 mi ESE 5.8 mph - -   Scattered Clouds
5:00 PM 84.2 °F 90.9 °F 73.4 °F 70% 29.89 in 6.2 mi ESE 5.8 mph - N/A   Partly Cloudy
6:00 PM 82.4 °F 89.5 °F 75.2 °F 79% 29.89 in 6.2 mi East 4.6 mph - N/A   Partly Cloudy
7:00 PM 82.4 °F 89.5 °F 75.2 °F 79% 29.92 in 6.2 mi East 5.8 mph - N/A   Partly Cloudy
8:00 PM 82 °F - 74 °F 70% 29.94 in 25 mi East 6.9 mph - -   Scattered Clouds
8:00 PM 82.4 °F 88.2 °F 73.4 °F 74% 29.92 in 6.2 mi East 6.9 mph - N/A   Partly Cloudy
9:00 PM 82.4 °F 88.2 °F 73.4 °F 74% 29.95 in 6.2 mi East 6.9 mph - N/A   Partly Cloudy
10:00 PM 82.4 °F 89.5 °F 75.2 °F 79% 29.95 in 6.2 mi East 5.8 mph - N/A   Partly Cloudy
11:00 PM 82 °F - 74 °F 72% 29.95 in 19 mi East 6.9 mph - -   Scattered Clouds
11:00 PM 82.4 °F 89.5 °F 75.2 °F 79% 29.95 in 6.2 mi East 6.9 mph - N/A   Partly Cloudy